APJ188 RJFM-RJBB

Flight info

Callsign APJ188
Flight time 0h 53m
Altitude 35000
Route MADOG Y53 NIXOV
Aircraft A20N/M-SDE2E3FGHIRWXY/LB1

Departure

Time 2026-05-04 10:19
Airport Miyazaki Airport (RJFM)

Arrival

Time 2026-05-04 11:13
Airport Kansai International Airport (RJBB)
Time Latitude Longitude Altitude Speed Heading
2026-05-04 09:49 31.87353 131.44150 31 ft 0 kts 175°
2026-05-04 10:08 31.87392 131.44147 31 ft 2 kts 175°
2026-05-04 10:08 31.87405 131.44145 31 ft 2 kts 175°
2026-05-04 10:08 31.87418 131.44144 31 ft 2 kts 175°
2026-05-04 10:08 31.87433 131.44142 31 ft 2 kts 175°
2026-05-04 10:09 31.87446 131.44142 31 ft 2 kts 175°
2026-05-04 10:09 31.87458 131.44141 31 ft 2 kts 175°
2026-05-04 10:09 31.87459 131.44141 31 ft 2 kts 175°
2026-05-04 10:09 31.87463 131.44141 31 ft 1 kts 175°
2026-05-04 10:10 31.87471 131.44139 31 ft 2 kts 172°
2026-05-04 10:10 31.87482 131.44135 31 ft 2 kts 137°
2026-05-04 10:10 31.87489 131.44122 31 ft 2 kts 110°
2026-05-04 10:10 31.87491 131.44112 31 ft 0 kts 89°
2026-05-04 10:11 31.87491 131.44106 31 ft 1 kts 83°
2026-05-04 10:11 31.87490 131.44102 31 ft 0 kts 85°
2026-05-04 10:13 31.87491 131.44109 31 ft 1 kts 85°
2026-05-04 10:13 31.87492 131.44128 31 ft 3 kts 85°
2026-05-04 10:13 31.87495 131.44159 31 ft 5 kts 85°
2026-05-04 10:14 31.87498 131.44206 31 ft 8 kts 85°
2026-05-04 10:14 31.87503 131.44273 31 ft 11 kts 85°
2026-05-04 10:16 31.87559 131.45061 30 ft 21 kts 85°
2026-05-04 10:16 31.87571 131.45221 30 ft 22 kts 84°
2026-05-04 10:16 31.87581 131.45375 30 ft 23 kts 85°
2026-05-04 10:16 31.87593 131.45535 30 ft 24 kts 85°
2026-05-04 10:17 31.87605 131.45697 30 ft 25 kts 85°
2026-05-04 10:17 31.87617 131.45868 30 ft 25 kts 84°
2026-05-04 10:19 31.87608 131.43471 570 ft 157 kts 266°
2026-05-04 10:19 31.87521 131.42407 1299 ft 155 kts 268°
2026-05-04 10:19 31.87472 131.41746 1731 ft 155 kts 268°
2026-05-04 10:20 31.87401 131.40677 2240 ft 163 kts 269°
2026-05-04 10:20 31.87327 131.39539 2661 ft 176 kts 269°
2026-05-04 10:20 31.87249 131.38350 3021 ft 194 kts 270°
2026-05-04 10:20 31.87336 131.37016 3436 ft 206 kts 290°
2026-05-04 10:21 31.87908 131.35773 3914 ft 217 kts 313°
2026-05-04 10:21 31.89053 131.34825 4450 ft 233 kts 340°
2026-05-04 10:21 31.90517 131.34541 5045 ft 248 kts 354°
2026-05-04 10:21 31.91946 131.34441 5799 ft 253 kts 354°
2026-05-04 10:22 31.94846 131.35097 7427 ft 267 kts 28°
2026-05-04 10:22 31.96062 131.36418 8173 ft 281 kts 50°
2026-05-04 10:22 31.96769 131.38242 8872 ft 295 kts 73°
2026-05-04 10:23 31.96967 131.40147 9548 ft 303 kts 84°
2026-05-04 10:23 31.96764 131.42232 10227 ft 313 kts 106°
2026-05-04 10:25 31.85898 131.52420 14357 ft 371 kts 148°
2026-05-04 10:25 31.83828 131.54117 15122 ft 376 kts 148°
2026-05-04 10:25 31.81712 131.55859 15885 ft 381 kts 148°
2026-05-04 10:25 31.79845 131.57396 16552 ft 385 kts 149°
2026-05-04 10:26 31.77738 131.59146 17298 ft 390 kts 146°
2026-05-04 10:26 31.75624 131.61971 18124 ft 406 kts 119°
2026-05-04 10:26 31.74835 131.64955 18806 ft 414 kts 97°
2026-05-04 10:27 31.75008 131.68185 19374 ft 421 kts 75°
2026-05-04 10:28 31.76362 131.72447 20072 ft 429 kts 64°
2026-05-04 10:28 31.77568 131.75566 20523 ft 438 kts 64°
2026-05-04 10:28 31.78740 131.78688 20982 ft 446 kts 65°
2026-05-04 10:28 31.79642 131.81206 21353 ft 451 kts 67°
2026-05-04 10:29 31.80510 131.83723 21698 ft 457 kts 68°
2026-05-04 10:29 31.81674 131.87216 22151 ft 465 kts 69°
2026-05-04 10:29 31.82822 131.90742 22605 ft 472 kts 70°
2026-05-04 10:29 31.83984 131.94344 23076 ft 478 kts 70°
2026-05-04 10:30 31.85157 131.97990 23723 ft 480 kts 69°
2026-05-04 10:30 31.86331 132.01621 24384 ft 481 kts 70°
2026-05-04 10:30 31.87505 132.05266 24981 ft 484 kts 70°
2026-05-04 10:30 31.88694 132.08960 25526 ft 488 kts 71°
2026-05-04 10:31 31.89873 132.12602 26026 ft 493 kts 70°
2026-05-04 10:31 31.91106 132.16441 26548 ft 497 kts 69°
2026-05-04 10:32 32.05812 132.33301 29376 ft 510 kts 33°
2026-05-04 10:33 32.07429 132.34792 29613 ft 514 kts 33°
2026-05-04 10:33 32.10229 132.37416 30031 ft 518 kts 34°
2026-05-04 10:33 32.12981 132.40024 30567 ft 519 kts 33°
2026-05-04 10:33 32.15737 132.42639 31231 ft 516 kts 33°
2026-05-04 10:34 32.18415 132.45171 31817 ft 513 kts 33°
2026-05-04 10:34 32.21160 132.47760 32326 ft 514 kts 33°
2026-05-04 10:34 32.23854 132.50314 32800 ft 514 kts 33°
2026-05-04 10:34 32.26540 132.52863 33311 ft 513 kts 34°
2026-05-04 10:35 32.28984 132.55170 33701 ft 513 kts 33°
2026-05-04 10:35 32.30605 132.56706 33908 ft 515 kts 33°
2026-05-04 10:35 32.32937 132.58922 34196 ft 517 kts 32°
2026-05-04 10:35 32.35424 132.61285 34519 ft 519 kts 33°
2026-05-04 10:36 32.37906 132.63640 34822 ft 520 kts 32°
2026-05-04 10:36 32.40473 132.66081 35051 ft 523 kts 33°
2026-05-04 10:36 32.45598 132.70950 35055 ft 524 kts 33°
2026-05-04 10:37 32.50593 132.75714 35062 ft 525 kts 32°
2026-05-04 10:37 32.55653 132.80547 35053 ft 524 kts 33°
2026-05-04 10:39 32.73049 132.97374 35045 ft 527 kts 38°
2026-05-04 10:40 32.77640 133.03079 35047 ft 534 kts 48°
2026-05-04 10:40 32.81557 133.09367 35051 ft 536 kts 54°
2026-05-04 10:41 32.84751 133.14920 35053 ft 535 kts 54°
2026-05-04 10:41 32.88597 133.21516 35051 ft 535 kts 54°
2026-05-04 10:42 32.92466 133.28078 35054 ft 536 kts 53°
2026-05-04 10:42 32.96321 133.34589 35055 ft 535 kts 53°
2026-05-04 10:43 33.00215 133.41185 35038 ft 537 kts 52°
2026-05-04 10:45 33.16249 133.68478 35038 ft 539 kts 53°
2026-05-04 10:45 33.20225 133.75267 35046 ft 540 kts 54°
2026-05-04 10:46 33.24058 133.81856 35047 ft 540 kts 54°
2026-05-04 10:46 33.27826 133.88319 35049 ft 540 kts 53°
2026-05-04 10:46 33.29725 133.91595 34811 ft 543 kts 53°
2026-05-04 10:47 33.31584 133.94775 34346 ft 542 kts 54°
2026-05-04 10:47 33.33486 133.98045 33809 ft 542 kts 54°
2026-05-04 10:47 33.35384 134.01323 33244 ft 542 kts 53°
2026-05-04 10:47 33.37379 134.04770 32650 ft 542 kts 54°
2026-05-04 10:49 33.51450 134.29138 28528 ft 536 kts 53°
2026-05-04 10:49 33.53334 134.32417 28102 ft 532 kts 53°
2026-05-04 10:50 33.55255 134.35753 27668 ft 528 kts 53°
2026-05-04 10:51 33.72354 134.47130 24742 ft 411 kts 337°
2026-05-04 10:52 33.74947 134.46722 24345 ft 412 kts 340°
2026-05-04 10:52 33.77530 134.46449 23960 ft 412 kts 342°
2026-05-04 10:52 33.80081 134.46278 23603 ft 412 kts 344°
2026-05-04 10:54 33.97475 134.45989 20820 ft 399 kts 348°
2026-05-04 10:54 33.99940 134.45972 20412 ft 397 kts 349°
2026-05-04 10:56 34.17063 134.45871 17587 ft 370 kts 352°
2026-05-04 10:56 34.19589 134.45859 17197 ft 366 kts 352°
2026-05-04 10:56 34.22085 134.45847 16794 ft 361 kts 352°
2026-05-04 10:57 34.24570 134.45854 16389 ft 359 kts 355°
2026-05-04 10:57 34.27014 134.46497 16005 ft 371 kts 16°
2026-05-04 10:57 34.29210 134.48178 15577 ft 381 kts 34°
2026-05-04 10:57 34.31184 134.50323 15122 ft 380 kts 36°
2026-05-04 10:58 34.33095 134.52475 14693 ft 377 kts 36°
2026-05-04 10:58 34.35023 134.54639 14286 ft 373 kts 36°
2026-05-04 10:58 34.36900 134.56718 13869 ft 369 kts 36°
2026-05-04 10:58 34.38791 134.58797 13444 ft 366 kts 35°
2026-05-04 10:59 34.40672 134.60851 13027 ft 362 kts 36°
2026-05-04 10:59 34.42521 134.62866 12600 ft 359 kts 36°
2026-05-04 10:59 34.44371 134.64882 12202 ft 355 kts 36°
2026-05-04 10:59 34.46199 134.66876 11788 ft 352 kts 36°
2026-05-04 11:00 34.47951 134.68787 11399 ft 349 kts 36°
2026-05-04 11:01 34.59310 134.81216 9423 ft 297 kts 36°
2026-05-04 11:02 34.60778 134.82968 9048 ft 300 kts 48°
2026-05-04 11:02 34.61568 134.85313 8595 ft 312 kts 79°
2026-05-04 11:05 34.60672 135.19656 4049 ft 269 kts 86°
2026-05-04 11:06 34.60622 135.21887 3932 ft 260 kts 85°
2026-05-04 11:06 34.60582 135.23975 3758 ft 253 kts 86°
2026-05-04 11:06 34.60542 135.26083 3585 ft 246 kts 85°
2026-05-04 11:06 34.60503 135.28117 3418 ft 239 kts 85°
2026-05-04 11:08 34.57838 135.38582 2507 ft 212 kts 191°
2026-05-04 11:10 34.50710 135.32326 1671 ft 182 kts 237°
2026-05-04 11:12 34.46278 135.25726 392 ft 128 kts 238°
2026-05-04 11:12 34.45748 135.24936 235 ft 127 kts 238°
2026-05-04 11:12 34.45235 135.24175 78 ft 125 kts 237°
2026-05-04 11:12 34.44764 135.23459 9 ft 112 kts 233°
2026-05-04 11:13 34.44412 135.22932 9 ft 68 kts 231°
2026-05-04 11:13 34.44229 135.22662 9 ft 29 kts 227°
2026-05-04 11:13 34.44093 135.22522 9 ft 28 kts 211°
2026-05-04 11:13 34.43945 135.22450 9 ft 20 kts 192°
2026-05-04 11:14 34.43858 135.22482 9 ft 7 kts 116°
2026-05-04 11:14 34.43817 135.22528 9 ft 9 kts 142°
2026-05-04 11:14 34.43766 135.22575 9 ft 11 kts 134°
2026-05-04 11:16 34.43809 135.22908 9 ft 1 kts 175°